TIANWANG 1A (TW-1A)
1 40928U 15051D   19249.82097878  .00003495  00000-0  86216-4 0  9997
2 40928  97.1404 279.3450 0011944 135.1544 310.2051 15.41129473221512
LAPAN A2
1 40931U 15052B   19247.63149343  .00000508  00000-0 -18355-4 0  9996
2 40931   5.9930 220.7492 0013038 180.1577 179.9020 14.76611073212802
LQSAT
1 40958U 15057A   19249.78429124 +.00000005 +00000-0 +85110-5 0  9991
2 40958 097.8925 316.7920 0017776 348.8561 011.2251 14.73087817210606
CHUBUSAT 2
1 41338U 16012B   19249.66965185  .00000308  00000-0  17216-4 0  9992
2 41338  31.0042 356.4933 0013677 175.8788 184.1961 15.00174262194936
CHUBUSAT 3
1 41339U 16012C   19249.69634780  .00000368  00000-0  21851-4 0  9996
2 41339  31.0116 354.3128 0013391 183.6259 176.4279 15.00348590194938
OUFTI-1
1 41458U 16025C   19249.79150546 +.00001786 +00000-0 +93399-4 0  9997
2 41458 098.1011 340.7090 0167498 087.8530 274.1865 15.05990521184624
E-STAR-2
1 41459U 16025D   19249.82720583  .00001431  00000-0  76148-4 0  9996
2 41459  98.1017 340.3665 0168929  89.1322 272.9202 15.05617832184609
AAUSAT 4
1 41460U 16025E   19249.83448707  .00002482  00000-0  12621-3 0  9996
2 41460  98.0969 341.8165 0158642  81.0357 280.8759 15.07570806184748
NUSAT 1
1 41557U 16033B   19249.91104554 +.00001057 +00000-0 +42156-4 0  9994
2 41557 097.4164 336.9450 0014256 021.3616 338.8215 15.27348495182337
BEESAT 4
1 41619U 16040W   19249.85862738  .00001196  00000-0  53311-4 0  9998
2 41619  97.3607 310.5652 0013042 100.7767 259.4938 15.23270492166069
PRATHAM
1 41783U 16059A   19249.89340219 +.00000032 +00000-0 +15432-4 0  9999
2 41783 098.0603 307.6746 0034674 130.4924 229.9309 14.63007288157276
ALSAT 1N
1 41789U 16059G   19249.81361792  .00000087  00000-0  25344-4 0  9999
2 41789  98.0640 309.7670 0029492 119.9660 240.4453 14.64259525157376
NAYIF 1
1 42017U 17008BX  19249.32405041  .00001320  00000-0  54668-4 0  9993
2 42017  97.3970 315.5782 0004710 240.7183 119.3584 15.25682347142066
MAX VALIER SAT
1 42778U 17036P   19249.73458445 +.00000803 +00000-0 +38008-4 0  9994
2 42778 097.3473 305.6106 0010880 308.2541 051.7715 15.22115652122410
